Location: Burzi?i
(45.0869°N, 16.0577°E)
Time: 11:22:36
(UTC+00:00)

H-2A R/B - Pass Details

Date: 29 October 2020
Orbit: 733 x 837 km, 98.2° (Epoch: 28 November)

Event Time Altitude Azimuth Distance (km) Brightness Sun altitude
Exits shadow 17:56:28 - 167° (SSE) 2,798 4.7 -23.3°
Reaches altitude 10° 17:57:24 10° 167° (SSE) 2,429 4.4 -23.4°
Maximum altitude 18:02:50 84° 256° (WSW) 847 2.1 -24.4°
Drops below altitude 10° 18:08:20 10° 345° (NNW) 2,460 4.8 -25.3°
Sets 18:10:42 0° 347° (NNW) 3,395 5.6 -25.8°
